Preview of NWS' New Version of Forecast
This preview is not operational and should not be used for support decisions.

Regional Weather Roundup (RWR)

Issued by National Weather Service (NWS)

                            
000
ASUS44 KJAN 240410
RWRMS 

MISSISSIPPI HOURLY WEATHER ROUNDUP
NATIONAL WEATHER SERVICE JACKSON MS
1100 PM CDT SUN JUN 23 2019

NOTE: "FAIR: INDICATES FEW OR NO CLOUDS BELOW 12,000 FEET WITH NO
SIGNIFICANT WEATHER AND/OR OBSTRUCTIONS TO VISIBILITY.

MSZ001>002-007>008-010>013-018>021-025>028-034>036-240500-
NORTHWEST MISSISSIPPI
  
CITY           SKY/WX    TMP DP  RH WIND       PRES   REMARKS
BATESVILLE       N/A     70  68  94 CALM      29.89R                  
CLARKSDALE     MOCLDY    72  72 100 SW5       29.91R                  
CLEVELAND      TSTM      68  68 100 NW12G26   29.94R                  
GREENWOOD      FAIR      71  67  87 E9        29.89F                  
GREENVILLE       N/A    N/A N/A N/A MISG      29.87F                  
OLIVE BRANCH     N/A     68  68 100 CALM      29.88F                  
OXFORD         MOCLDY    68  68 100 CALM      29.92F                  
TUNICA           N/A     68  68 100 CALM      29.90S                  
WINONA         MOCLDY    69  69 100 NE7       29.91F                  
$$

MSZ003>006-009-014>017-022>024-029>033-037>039-240500-
NORTHEAST MISSISSIPPI
  
CITY           SKY/WX    TMP DP  RH WIND       PRES   REMARKS
ABERDEEN       DRIZZLE   75  75 100 NW12G32   29.93R                  
COLUMBUS AFB   FAIR      78  74  86 CALM      29.89S                  
CORINTH        MOCLDY    70  68  94 CALM      29.91F                  
GOLDN TRIANGLE FAIR      79  74  84 SW5       29.91S                  
STARKVILLE       N/A     75  70  83 NW3       29.93R                  
TUPELO         TSTM      70  67  90 E8        29.94R FOG              
$$

MSZ040-058-240500-
CENTRAL MISSISSIPPI
  
CITY           SKY/WX    TMP DP  RH WIND       PRES   REMARKS
JACKSON INTL   FAIR      82  75  79 S12       29.90F                  
JACKSON HAWKNS FAIR      82  76  81 S12       29.90F                  
MADISON        FAIR      81  79  94 S8        29.90F                  
MERIDIAN KEY   FAIR      83  74  74 S9        29.94S                  
MERIDIAN NAS   CLOUDY    81  73  76 S7        29.94F                  
RAYMOND        FAIR      81  81 100 SE6       29.89S HX  91           
VICKSBURG VKS  CLEAR     82  77  83 S7        29.88S HX  91           
$$

MSZ059>079-240500-
SOUTH MISSISSIPPI
  
CITY           SKY/WX    TMP DP  RH WIND       PRES   REMARKS
BROOKHAVEN     CLOUDY    81  75  83 E9        29.94F                  
HATTIESBURG    FAIR      82  76  81 S7        29.97R                  
LAUREL         MOCLDY    82  77  85 S7        29.95S HX  90           
MCCOMB         MOCLDY    81  76  84 S7        29.95S                  
NATCHEZ        FAIR      82  76  81 S8        29.91S                  
PINE BELT      FAIR      81  78  91 S10       29.97R                  
$$

MSZ080>082-240500-
COASTAL MISSISSIPPI
  
CITY           SKY/WX    TMP DP  RH WIND       PRES   REMARKS
BILOXI         FAIR      85  78  79 S16       29.97R HX  95           
PASCAGOULA     FAIR      85  75  72 S6        29.97F HX  93           
GULFPORT       MOCLDY    85  77  77 S10       29.96S HX  95           
$$

LAZ007>009-015>016-023>026-240500-
NORTHEAST LOUISIANA
  
CITY           SKY/WX    TMP DP  RH WIND       PRES   REMARKS
BASTROP        CLOUDY    71  70  98 N6        29.90R                  
TALLULAH/VBURG FAIR      82  76  81 S7        29.87F                  
VIDALIA        FAIR      83  77  82 S10G16    29.89S HX  91           
$$